Flugplatz Münster Osnabrück

Bericht für EDDG

vom 25.10. um 15:20 UTC

Wind 3 kt aus 180°

Sichtweite 10 km oder mehr

gering bewölkt in 2100 ft

aufgebrochene Bewölkung in 2400 ft

aufgebrochene Bewölkung in 3900 ft

Temperatur 14.0°C

Taupunkt 9.0°C

Luftfeuchtigkeit 72%

Luftdruck 1016 hPa

keine wesentliche Wetteränderung innerhalb den nächsten 2 Stunden zu erwarten

EDDG 251520Z 18003KT 150V220 9999 FEW021 BKN024 BKN039 14/09 Q1016 NOSIG

Prognose für EDDG

vom 25.10. um 11:00 UTC

Zwischen 12:00 UTC und 00:00 UTC

Wind 6 kt aus 200°

Sichtweite 10 km oder mehr

aufgebrochene Bewölkung in 3500 ft


Am 26.10. zwischen 00:00 und 03:00 UTC übergehend zu

Wind 6 kt aus 200°

Sichtweite 10 km oder mehr

aufgebrochene Bewölkung in 1200 ft


Am 26.10. zwischen 03:00 UTC und 08:00 UTC zeitweise

aufgebrochene Bewölkung in 800 ft


Am 26.10. zwischen 04:00 UTC und 07:00 UTC zeitweise mit einer Wahrscheinlichkeit von 30%

Sichtweite 4500 m

feuchter Dunst

aufgebrochene Bewölkung in 400 ft


Am 26.10. zwischen 08:00 und 11:00 UTC übergehend zu

Wind 6 kt aus 200°

Sichtweite 10 km oder mehr

aufgebrochene Bewölkung in 2000 ft

TAF EDDG 251100Z 2512/2612 20006KT 9999 BKN035 BECMG 2600/2603 BKN012 TEMPO 2603/2608 BKN008 PROB30 TEMPO 2604/2607 4500 BR BKN004 BECMG 2608/2611 BKN020
Impressum